Regional Weather Roundup
Issued by NWS

Home | Current Version | Previous Version | Text Only | Print | Product List | Glossary Off
Versions: 1 2 3 4 5 6 7 8 9 10 11 12 13 14 15 16 17 18 19 20 21 22 23 24 25 26 27 28 29 30 31 32 33 34 35 36 37 38 39 40 41 42 43 44 45 46 47 48 49 50

000
ASUS43 KOAX 251910
RWRNE

WEATHER ROUNDUP FOR NEBRASKA
NATIONAL WEATHER SERVICE OMAHA NE
200 PM CDT MON JUL 25 2016

NOTES: SATELLITE DATA IS BEING USED TO AUGMENT CLOUD COVER ABOVE
       12000 FEET.
       "FAIR" INDICATES FEW OR NO CLOUDS BELOW 12,000 FEET WITH NO
       SIGNIFICANT WEATHER AND/OR OBSTRUCTIONS TO VISIBILITY.

  * THESE STATIONS DO NOT REPORT WEATHER SUCH AS RAIN...SNOW OR FOG.

NEZ001>004-019>022-054>056-252000-
NEBRASKA PANHANDLE

CITY           SKY/WX    TMP DP  RH WIND       PRES   REMARKS
SCOTTSBLUFF    SUNNY     88  56  33 SE16G23   30.11F
ALLIANCE       SUNNY     83  58  42 SE22G28   30.14F
CHADRON        SUNNY     90  54  29 S18       30.07F
KIMBALL        SUNNY     82  58  44 SE16G24   30.19S
SIDNEY         SUNNY     85  58  39 S18G26    30.18F
$$

NEZ057>060-069>072-079>082-252000-
SOUTHWEST NEBRASKA

CITY           SKY/WX    TMP DP  RH WIND       PRES   REMARKS
NORTH PLATTE   MOSUNNY   83  67  58 SE8       30.14F
IMPERIAL       SUNNY     86  60  41 SE16G24   30.14F
LEXINGTON      SUNNY     82  64  53 SE12      30.15S
MCCOOK         SUNNY     88  62  41 SE14      30.13F
OGALLALA       SUNNY     85  59  41 SE15      30.14F
$$

NEZ005>010-023>029-035>040-094-252000-
NORTH CENTRAL NEBRASKA

CITY           SKY/WX    TMP DP  RH WIND       PRES   REMARKS
VALENTINE      SUNNY     88  46  23 S21G26    30.10F
AINSWORTH      SUNNY     86  51  30 SE15G23   30.12F
BROKEN BOW     SUNNY     82  61  48 SE14G25   30.15F
O`NEILL        SUNNY     86  49  27 S14       30.13F
ORD            SUNNY     83  56  39 S9        30.13F
THEDFORD       SUNNY     85  60  42 SE16G23   30.15F
$$

NEZ041-046>049-061>064-073>077-083>087-252000-
SOUTH CENTRAL NEBRASKA

CITY           SKY/WX    TMP DP  RH WIND       PRES   REMARKS
GRAND ISLAND   SUNNY     83  60  45 E9        30.14F
AURORA         SUNNY     82  65  55 SE6       30.13F
HASTINGS       SUNNY     84  63  49 SE10G17   30.14F
HEBRON         SUNNY     83  54  36 SE5       30.12F
HOLDREGE       SUNNY     82  63  51 E13       30.14F
KEARNEY *      SUNNY     84  64  51 SE9G16    30.15F
YORK           SUNNY     82  66  57 S6        30.13F
$$

NEZ011>018-030>034-042>045-252000-
NORTHEAST NEBRASKA

CITY           SKY/WX    TMP DP  RH WIND       PRES   REMARKS
NORFOLK        SUNNY     82  62  50 S7        30.13F
ALBION         SUNNY     81  59  46 S9        30.14F
BLAIR          SUNNY     84  65  52 E6        30.12F
FREMONT        SUNNY     83  63  51 SW6       30.13S
TEKAMAH        SUNNY     86  63  45 VRB5      30.11F
WAYNE          SUNNY     82  67  59 S8        30.14S
$$

NEZ050>053-065>068-078-088>093-252000-
SOUTHEAST NEBRASKA

CITY           SKY/WX    TMP DP  RH WIND       PRES   REMARKS
LINCOLN        SUNNY     86  57  37 CALM      30.12F
OMAHA EPPLEY   MOSUNNY   87  65  47 VRB5      30.11F
BEATRICE       SUNNY     85  57  38 N6        30.10F
FALLS CITY     MOSUNNY   84  64  50 NE8       30.07F
NEBRASKA CITY  SUNNY     81  64  56 NE3       30.10F
PLATTSMOUTH    SUNNY     82  65  56 NE3       30.12F
$$

NEZ044-045-051>053-067-252000-
OMAHA AREA

CITY           SKY/WX    TMP DP  RH WIND       PRES   REMARKS
OMAHA EPPLEY   MOSUNNY   87  65  47 VRB5      30.11F
BLAIR          SUNNY     84  65  52 E6        30.12F
FREMONT        SUNNY     83  63  51 SW6       30.13S
MILLARD        SUNNY     84  66  54 SE6       30.11F
OFFUTT AFB     SUNNY     84  65  54 VRB3      30.11F
PLATTSMOUTH    SUNNY     82  65  56 NE3       30.12F
WAHOO          FAIR      83  62  48 CALM      30.12F
$$



USA.gov is the U.S. government's official web portal to all federal, state and local government web resources and services.